Los Angeles, CA

11:05 AM PDT on September 27, 2016 (GMT -0700)
Los Angeles Downtown

Weather History for KCQT - October, 2012

Change the Weather History Date:

Tuesday, October 9, 2012

  Actual Average Record
Temperature  
Mean Temperature 70 °F 70 °F  
Max Temperature 76 °F 79 °F 102 °F (1988)
Min Temperature 63 °F 60 °F 46 °F (1879)
Degree Days  
Heating Degree Days 0 0  
Month to date heating degree days 0 0  
Since 1 July heating degree days 0 2  
Cooling Degree Days 5 5  
Month to date cooling degree days 72 50  
Year to date cooling degree days 1151 1128  
Growing Degree Days 18 (Base 50)    
Moisture  
Dew Point 57 °F    
Average Humidity 68    
Maximum Humidity 90    
Minimum Humidity 46    
Precipitation  
Precipitation 0.00 in 0.01 in 0.44 in (1904)
Month to date precipitation 0.00 0.15  
Year to date precipitation 4.94 11.05  
Since 1 July precipitation 0.01  
Sea Level Pressure  
Sea Level Pressure 29.95 in    
Wind  
Wind Speed 2 mph (East)    
Max Wind Speed 8 mph    
Max Gust Speed 14 mph    
Visibility 10 miles    
Events      
T = Trace of Precipitation, MM = Missing Value Source: NWS Daily Summary

Daily Weather History Graph

Daily Weather History Graph

Search for Another Location

Airport or City:

Trip Planner

Search our weather history database for the weather conditions in past years. The results will help you decide how hot, cold, wet, or windy it might be!

Date:

Astronomy

Oct. 09, 2012 Rise Set
Actual Time 6:54 AM PDT 6:25 PM PDT
Civil Twilight 6:28 AM PDT 6:50 PM PDT
Nautical Twilight 5:59 AM PDT 7:19 PM PDT
Astronomical Twilight 5:30 AM PDT 7:48 PM PDT
Moon 12:51 AM PDT (10/9) 2:41 PM PDT (10/9)
Length of Visible Light 12h 22m
Length of Day
11h 31m
Waning Crescent, 35% of the Moon is Illuminated
Oct 9
Waning Crescent
Oct 15
New
Oct 21
First Quarter
Oct 29
Full
Nov 6
Last Quarter

Hourly Weather History & Observations

Time (PDT) Temp. Dew Point Humidity Pressure Visibility Wind Dir Wind Speed Gust Speed Precip Events Conditions
12:47 AM 64.0 °F 59.0 °F 84% 29.96 in 10.0 mi East 3.5 mph - N/A   Clear
1:47 AM 64.0 °F 59.0 °F 84% 29.96 in 10.0 mi East 3.5 mph - N/A   Clear
2:47 AM 63.0 °F 59.0 °F 87% 29.95 in 10.0 mi East 3.5 mph - N/A   Clear
3:47 AM 63.0 °F 57.9 °F 84% 29.94 in 10.0 mi Calm Calm - N/A   Clear
4:47 AM 63.0 °F 57.9 °F 84% 29.95 in 10.0 mi Calm Calm - N/A   Clear
5:47 AM 63.0 °F 57.9 °F 84% 29.96 in 10.0 mi Calm Calm - N/A   Clear
6:21 AM 62.6 °F 57.2 °F 82% 29.97 in 10.0 mi Calm Calm - N/A   Mostly Cloudy
6:47 AM 64.0 °F 57.0 °F 78% 29.97 in 10.0 mi Calm Calm - N/A   Overcast
7:47 AM 64.0 °F 55.9 °F 75% 29.98 in 10.0 mi Calm Calm - N/A   Overcast
8:47 AM 66.0 °F 57.0 °F 73% 29.99 in 9.0 mi East 3.5 mph - N/A   Mostly Cloudy
9:01 AM 68.0 °F 57.2 °F 68% 29.99 in 9.0 mi East 4.6 mph - N/A   Scattered Clouds
9:47 AM 70.0 °F 55.9 °F 61% 29.98 in 10.0 mi Variable 3.5 mph - N/A   Partly Cloudy
10:47 AM 72.0 °F 55.0 °F 55% 29.98 in 10.0 mi Calm Calm - N/A   Clear
11:47 AM 75.0 °F 54.0 °F 48% 29.96 in 10.0 mi Variable 4.6 mph - N/A   Mostly Cloudy
12:47 PM 75.9 °F 55.0 °F 48% 29.94 in 10.0 mi Calm Calm - N/A   Scattered Clouds
1:47 PM 73.0 °F 57.0 °F 57% 29.93 in 10.0 mi Variable 3.5 mph - N/A   Partly Cloudy
2:47 PM 73.0 °F 57.0 °F 57% 29.92 in 10.0 mi Calm Calm - N/A   Clear
3:47 PM 73.9 °F 57.0 °F 55% 29.91 in 10.0 mi Variable 5.8 mph - N/A   Clear
4:47 PM 71.1 °F 55.9 °F 59% 29.92 in 10.0 mi West 5.8 mph - N/A   Clear
5:47 PM 69.1 °F 57.0 °F 65% 29.92 in 10.0 mi Variable 4.6 mph - N/A   Clear
6:47 PM 68.0 °F 55.9 °F 65% 29.93 in 10.0 mi Calm Calm - N/A   Clear
7:47 PM 66.9 °F 57.0 °F 70% 29.94 in 10.0 mi Calm Calm - N/A   Partly Cloudy
8:47 PM 66.0 °F 59.0 °F 78% 29.96 in 10.0 mi Calm Calm - N/A   Clear
9:47 PM 64.9 °F 60.1 °F 84% 29.96 in 10.0 mi Calm Calm - N/A   Clear
10:47 PM 64.9 °F 60.1 °F 84% 29.96 in 10.0 mi Calm Calm - N/A   Clear
11:47 PM 64.0 °F 57.9 °F 80% 29.96 in 10.0 mi Calm Calm - N/A   Clear